EW6304 Weather Reports


time (UTC)temp
F
wind
direction
speed
knots
gust
knots
rain 1hr
in
rain 24hr
in
rain mn
in
humidity
%
barometer
mb
20260507212202 66 257 2.6 7.8 0.00 0.35 0.30 33 1003.9
20260507211707 66 238 2.6 7.8 0.00 0.35 0.30 32 1003.8
20260507211703 66 250 2.6 7.8 0.00 0.35 0.30 34 1003.9
20260507210705 66 267 2.6 8.7 0.00 0.35 0.30 32 1003.8
20260507210701 66 257 2.6 8.7 0.00 0.35 0.30 33 1003.8
20260507205658 66 305 3.5 11.3 0.00 0.35 0.30 33 1003.8
20260507205158 66 312 3.5 11.3 0.00 0.35 0.30 32 1003.7
20260507204658 65 257 2.6 7.8 0.00 0.35 0.30 34 1003.8
20260507204158 65 277 3.5 10.4 0.00 0.35 0.30 33 1003.9
20260507203656 65 326 4.3 10.4 0.00 0.35 0.30 33 1003.8
20260507203157 65 294 4.3 10.4 0.00 0.35 0.30 32 1003.8
20260507202656 65 281 4.3 10.4 0.00 0.35 0.30 34 1003.7
20260507202157 65 322 3.5 10.4 0.00 0.35 0.30 34 1003.8
20260507201657 65 255 2.6 7.8 0.00 0.35 0.30 35 1003.7
20260507201203 66 245 2.6 6.1 0.00 0.35 0.30 31 1003.8
20260507201157 65 307 2.6 7.8 0.00 0.35 0.30 31 1003.7
20260507200815 65 263 3.5 8.7 0.00 0.36 0.30 31 1003.9
20260507200156 66 252 3.5 9.6 0.00 0.35 0.30 32 1003.8
20260507195654 65 278 3.5 9.6 0.00 0.36 0.30 33 1003.8
20260507194658 65 305 5.2 14.8 0.00 0.37 0.30 33 1004.0
20260507194652 65 317 4.3 10.4 0.00 0.37 0.30 33 1003.9
20260507194152 65 269 4.3 10.4 0.00 0.37 0.30 31 1004.0
20260507193150 65 323 5.2 14.8 0.00 0.37 0.30 33 1004.1
20260507192650 66 277 2.6 10.4 0.00 0.37 0.30 35 1004.1
20260507192150 66 348 2.6 8.7 0.00 0.37 0.30 35 1004.1
20260507191651 65 266 3.5 10.4 0.00 0.37 0.30 37 1004.2
20260507191150 65 254 3.5 10.4 0.00 0.37 0.30 36 1004.3
20260507190651 65 319 3.5 12.2 0.00 0.37 0.30 40 1004.2
20260507190150 65 296 3.5 12.2 0.00 0.37 0.30 38 1004.3
20260507185651 66 296 2.6 7.8 0.00 0.37 0.30 38 1004.4
20260507185151 67 285 2.6 10.4 0.00 0.37 0.30 43 1004.5
20260507184656 65 313 4.3 10.4 0.00 0.37 0.30 42 1004.6
20260507184650 66 303 3.5 10.4 0.00 0.37 0.30 44 1004.5
20260507183649 65 338 4.3 10.4 0.00 0.37 0.30 39 1004.7
20260507183151 65 215 3.5 8.7 0.00 0.37 0.30 41 1004.6
20260507182649 65 237 3.5 9.6 0.00 0.37 0.30 41 1004.7
20260507182149 65 314 3.5 9.6 0.00 0.37 0.30 39 1004.8
20260507181655 66 263 3.5 10.4 0.00 0.37 0.30 48 1004.9
20260507181651 65 329 3.5 10.4 0.00 0.37 0.30 40 1004.8
20260507180651 66 313 3.5 8.7 0.00 0.37 0.30 42 1004.9
20260507180154 65 325 2.6 11.3 0.00 0.37 0.30 40 1005.0
20260507180149 65 325 3.5 11.3 0.00 0.37 0.30 42 1005.0
20260507175149 65 263 2.6 7.0 0.00 0.37 0.30 43 1005.0
20260507174655 65 254 3.5 7.8 0.00 0.37 0.30 41 1005.0
20260507174649 65 334 2.6 7.8 0.00 0.37 0.30 47 1004.9
20260507173649 65 310 3.5 8.7 0.00 0.37 0.30 46 1005.0
20260507173147 65 348 2.6 8.7 0.00 0.37 0.30 51 1004.9
20260507172647 64 319 2.6 7.8 0.00 0.37 0.30 50 1004.9
20260507172147 65 242 3.5 9.6 0.00 0.37 0.30 50 1005.1
20260507171652 65 220 2.6 9.6 0.00 0.37 0.30 51 1005.2
20260507171647 64 276 2.6 9.6 0.00 0.37 0.30 50 1005.2
20260507170648 65 260 2.6 9.6 0.00 0.37 0.30 53 1005.3
20260507170147 65 291 3.5 9.6 0.00 0.37 0.30 50 1005.3
20260507165651 63 258 3.5 9.6 0.00 0.37 0.30 52 1005.3
20260507165646 64 268 3.5 9.6 0.00 0.37 0.30 54 1005.2
20260507164651 63 0 2.6 9.6 0.00 0.37 0.30 53 1005.4
20260507164645 63 332 3.5 9.6 0.00 0.37 0.30 53 1005.4
20260507163646 63 275 1.7 8.7 0.00 0.37 0.30 56 1005.4
20260507163148 62 305 1.7 6.1 0.00 0.37 0.30 60 1005.5
20260507162645 62 288 2.6 5.2 0.00 0.37 0.30 59 1005.8
20260507162145 62 331 2.6 6.1 0.00 0.37 0.30 58 1005.8
20260507161806 63 323 2.6 7.8 0.00 0.37 0.30 60 1005.9
20260507161649 63 252 2.6 6.1 0.00 0.37 0.30 58 1005.8
20260507161645 62 294 2.6 6.1 0.00 0.37 0.30 61 1005.7
20260507160143 62 312 2.6 7.8 0.00 0.37 0.30 60 1005.9
20260507155645 62 290 2.6 7.0 0.00 0.37 0.30 61 1006.0
20260507155143 62 225 3.5 7.8 0.00 0.37 0.30 62 1006.1
20260507154643 62 327 3.5 7.8 0.00 0.37 0.30 60 1006.2
20260507154144 62 333 2.6 7.0 0.00 0.37 0.30 60 1006.2
20260507153643 62 302 1.7 6.1 0.00 0.37 0.30 60 1006.3
20260507153143 61 243 1.7 6.1 0.00 0.37 0.30 59 1006.2
20260507152645 61 232 2.6 7.0 0.00 0.37 0.30 60 1006.2
20260507152144 60 251 2.6 7.0 0.00 0.37 0.30 62 1006.3
20260507151642 60 97 3.5 8.7 0.00 0.37 0.30 61 1006.3
20260507151141 60 300 2.6 8.7 0.00 0.37 0.30 60 1006.4
20260507150642 60 276 1.7 7.8 0.00 0.37 0.30 59 1006.4
20260507150149 60 328 2.6 9.6 0.00 0.37 0.30 67 1006.6
20260507150143 60 244 2.6 7.0 0.00 0.37 0.30 63 1006.5
20260507145142 59 224 2.6 9.6 0.00 0.37 0.30 67 1006.6
20260507144642 58 320 2.6 9.6 0.00 0.37 0.30 66 1006.5
20260507144142 59 303 2.6 7.8 0.00 0.37 0.30 69 1006.5
20260507143642 58 251 1.7 7.8 0.00 0.37 0.30 69 1006.4
20260507143139 58 273 1.7 6.1 0.00 0.37 0.30 72 1006.6
20260507142639 58 321 2.6 9.6 0.00 0.37 0.30 71 1006.7
20260507142140 58 288 2.6 9.6 0.00 0.37 0.30 70 1006.7
20260507141646 58 43 2.6 8.7 0.00 0.37 0.30 73 1006.7
20260507141640 58 316 1.7 5.2 0.00 0.37 0.30 73 1006.7
20260507140637 57 292 3.5 9.6 0.00 0.37 0.30 74 1006.8
20260507140137 56 305 3.5 9.6 0.00 0.37 0.30 74 1006.9
20260507135650 55 322 3.5 9.6 0.00 0.37 0.30 80 1006.9
20260507135636 57 237 2.6 7.8 0.00 0.37 0.30 77 1006.8
20260507135138 56 209 1.7 5.2 0.00 0.37 0.30 78 1006.7
20260507134636 56 355 2.6 9.6 0.00 0.37 0.30 82 1006.7
20260507134257 55 232 2.6 8.7 0.00 0.37 0.30 83 1006.9
20260507133138 54 304 1.7 6.1 0.00 0.37 0.30 86 1006.9
20260507132637 54 341 2.6 7.8 0.00 0.37 0.30 89 1006.8
20260507132137 53 339 2.6 7.8 0.00 0.37 0.30 89 1006.7
20260507131636 53 325 2.6 7.0 0.00 0.37 0.30 91 1006.9
20260507131136 52 275 2.6 7.0 0.00 0.37 0.30 92 1007.1
20260507130637 52 304 1.7 6.1 0.00 0.37 0.30 93 1007.0
20260507130138 52 0 1.7 6.1 0.00 0.37 0.30 94 1006.9
20260507125635 51 315 1.7 4.3 0.00 0.37 0.30 94 1006.9
20260507125135 51 287 1.7 5.2 0.00 0.37 0.30 94 1006.9
20260507124634 51 262 1.7 6.1 0.00 0.37 0.30 94 1006.9
20260507124134 51 222 0.9 6.1 0.00 0.37 0.30 94 1006.9
20260507123634 51 300 0.9 3.5 0.00 0.37 0.30 94 1007.0
20260507123135 51 291 0.9 2.6 0.00 0.37 0.30 95 1007.4
20260507122632 51 291 0.9 2.6 0.00 0.37 0.30 95 1007.2
20260507122134 51 291 0.9 2.6 0.01 0.37 0.30 95 1007.3
20260507121632 51 301 0.0 0.9 0.02 0.37 0.30 94 1007.3
20260507121134 50 301 0.0 0.9 0.03 0.37 0.30 94 1007.0
20260507120638 50 301 0.0 0.9 0.04 0.37 0.30 94 1006.8
20260507120634 50 301 0.0 0.9 0.04 0.37 0.30 95 1006.9
20260507115634 50 301 0.0 0.9 0.05 0.37 0.30 94 1006.9
20260507115132 49 301 0.0 0.9 0.05 0.37 0.30 94 1007.0
20260507114638 49 301 0.9 1.7 0.05 0.37 0.30 94 1006.7
20260507114634 49 301 0.0 0.9 0.05 0.37 0.30 94 1006.9
20260507113634 49 301 0.9 1.7 0.05 0.37 0.30 94 1007.1
20260507113137 49 301 0.9 2.6 0.05 0.37 0.30 93 1006.4
20260507113132 49 301 0.9 0.9 0.05 0.37 0.30 94 1007.0
20260507112132 49 301 0.9 2.6 0.04 0.36 0.30 93 1006.4
20260507111638 49 293 0.9 2.6 0.02 0.34 0.27 93 1006.9
20260507111633 49 306 0.9 2.6 0.03 0.35 0.29 93 1006.9
20260507110632 49 260 0.9 2.6 0.01 0.33 0.27 93 1006.9
20260507110132 49 260 0.9 4.3 0.02 0.33 0.26 93 1006.9
20260507105635 49 248 0.9 4.3 0.02 0.32 0.25 93 1006.5
20260507105134 49 308 0.9 3.5 0.02 0.32 0.25 93 1006.5
20260507104638 49 313 1.7 4.3 0.02 0.32 0.25 93 1006.5
20260507104632 49 305 0.9 2.6 0.02 0.32 0.25 93 1006.3
20260507104133 49 294 1.7 4.3 0.02 0.32 0.25 93 1006.4
20260507103133 49 279 0.9 2.6 0.03 0.32 0.25 93 1006.6
20260507102630 49 311 0.9 3.5 0.03 0.32 0.25 93 1006.6
20260507102130 49 321 0.9 3.5 0.03 0.32 0.25 93 1006.9
20260507101632 50 271 0.9 3.5 0.03 0.32 0.25 93 1007.0
20260507101131 50 254 1.7 6.1 0.03 0.32 0.25 93 1006.7
20260507100629 50 331 1.7 6.1 0.03 0.32 0.25 93 1006.5
20260507100128 50 302 1.7 6.1 0.02 0.31 0.24 93 1006.5
20260507095629 50 302 1.7 3.5 0.02 0.30 0.23 93 1006.3
20260507095128 50 0 1.7 4.3 0.02 0.30 0.23 93 1006.5
20260507094634 50 0 1.7 7.0 0.02 0.30 0.23 93 1006.2
20260507094629 50 0 1.7 4.3 0.02 0.30 0.23 93 1006.2
20260507093631 50 295 1.7 7.0 0.03 0.30 0.23 93 1006.2
20260507093129 51 294 1.7 5.2 0.03 0.29 0.22 93 1006.2
20260507092636 51 309 0.9 3.5 0.04 0.29 0.22 93 1006.2
20260507092630 51 272 0.9 5.2 0.03 0.29 0.22 93 1006.2
20260507091626 51 309 0.9 3.5 0.07 0.29 0.22 93 1006.4
20260507091129 51 324 0.9 2.6 0.11 0.29 0.22 93 1006.3
20260507090626 51 324 0.9 4.3 0.12 0.29 0.22 93 1006.0
20260507090131 51 297 1.7 4.3 0.14 0.28 0.21 93 1005.6
20260507090126 51 324 1.7 4.3 0.14 0.29 0.22 93 1005.8
20260507085127 51 300 2.6 6.1 0.15 0.28 0.21 93 1005.8
20260507084628 52 319 2.6 7.8 0.17 0.28 0.21 92 1006.0
20260507084131 52 308 1.7 7.8 0.18 0.28 0.21 93 1005.9
20260507084125 52 0 1.7 3.5 0.19 0.27 0.20 93 1005.7
20260507083124 52 0 0.9 3.5 0.19 0.26 0.19 93 1005.9
20260507082632 53 0 3.5 8.7 0.15 0.22 0.15 92 1006.0
20260507082627 53 0 1.7 4.3 0.19 0.26 0.19 93 1005.2
20260507082125 53 0 1.7 8.7 0.18 0.25 0.18 92 1005.8
20260507081125 53 306 2.6 8.7 0.11 0.18 0.12 92 1006.0
20260507080624 54 313 2.6 9.6 0.09 0.16 0.09 92 1005.8
20260507080123 55 304 2.6 9.6 0.08 0.15 0.08 92 1006.0
20260507075624 55 320 2.6 7.8 0.07 0.14 0.07 92 1005.9
20260507075125 55 269 2.6 7.8 0.06 0.13 0.06 92 1005.5
20260507074622 55 296 2.6 6.1 0.04 0.11 0.05 92 1005.4
20260507074124 56 277 2.6 6.1 0.03 0.10 0.03 92 1005.6
20260507073624 56 251 2.6 8.7 0.01 0.08 0.01 93 1005.2
20260507073121 56 320 1.7 8.7 0.00 0.07 0.00 94 1004.7
20260507072622 56 292 1.7 3.5 0.00 0.07 0.00 94 1004.6
20260507072127 56 290 0.9 2.6 0.00 0.07 0.00 96 1004.8
20260507072123 56 292 0.9 2.6 0.00 0.07 0.00 95 1004.6
20260507071123 56 292 1.7 7.0 0.00 0.07 0.00 96 1004.6
20260507070623 57 262 1.7 7.0 0.00 0.07 0.00 96 1004.6
20260507070123 57 325 1.7 5.2 0.00 0.07 0.00 96 1004.8
20260507065621 57 230 0.9 5.2 0.00 0.07 0.00 96 1004.8
20260507065120 58 311 0.0 0.9 0.00 0.07 0.00 96 1004.7
20260507064622 58 311 0.0 0.9 0.00 0.07 0.00 96 1004.6
20260507064126 58 311 0.0 0.9 0.00 0.07 0.00 96 1004.6
20260507064122 58 311 0.0 0.9 0.00 0.07 0.00 96 1004.7
20260507063621 58 311 0.0 0.9 0.00 0.07 0.00 96 1004.7
20260507062622 58 311 0.0 0.9 0.00 0.07 0.00 96 1004.7
20260507062120 58 311 0.0 0.0 0.00 0.07 0.00 96 1004.7
20260507061620 58 311 0.0 0.9 0.00 0.07 0.00 96 1004.9
20260507061122 58 311 0.0 1.7 0.00 0.07 0.00 96 1004.9
20260507060620 58 311 0.0 1.7 0.00 0.07 0.00 96 1004.9
20260507060118 58 311 0.0 1.7 0.00 0.07 0.00 96 1005.0
20260507055620 58 311 0.0 1.7 0.00 0.07 0.00 96 1005.2
20260507055118 58 311 0.9 2.6 0.00 0.07 0.00 96 1005.3
20260507054616 58 311 0.9 3.5 0.00 0.07 0.00 96 1005.1
20260507054126 58 342 0.9 2.6 0.00 0.07 0.00 96 1005.3
20260507054116 58 309 0.9 3.5 0.00 0.07 0.00 96 1005.4
20260507053620 58 342 0.9 2.6 0.00 0.07 0.00 96 1005.1
20260507052615 58 115 0.9 2.6 0.00 0.07 0.00 96 1005.3
20260507052115 58 117 0.0 1.7 0.00 0.07 0.00 96 1005.2
20260507051615 58 117 0.0 0.9 0.00 0.07 0.00 96 1005.3
20260507051119 58 117 0.0 1.7 0.00 0.07 0.00 96 1005.5
20260507051115 58 117 0.0 1.7 0.00 0.07 0.00 96 1005.4
20260507050114 58 117 0.9 1.7 0.00 0.07 0.00 96 1005.5
20260507045615 58 118 0.9 2.6 0.00 0.07 0.00 96 1005.4
20260507045115 58 355 0.0 2.6 0.00 0.07 0.00 96 1005.6
20260507044616 58 355 0.0 1.7 0.00 0.07 0.00 96 1005.5
20260507044115 57 355 0.0 1.7 0.00 0.07 0.00 96 1005.5
20260507043615 57 355 0.0 1.7 0.00 0.07 0.00 96 1005.5
20260507043120 57 355 0.0 1.7 0.00 0.07 0.00 96 1005.2
20260507043116 57 355 0.0 1.7 0.00 0.07 0.00 96 1005.4
20260507042614 57 355 0.0 1.7 0.00 0.07 0.00 96 1005.3
20260507041614 57 355 0.0 1.7 0.00 0.07 0.00 96 1005.4
20260507041120 57 0 0.9 1.7 0.00 0.07 0.00 96 1005.3
20260507041115 57 355 0.9 1.7 0.00 0.07 0.00 96 1005.5
20260507040732 57 0 0.9 2.6 0.00 0.07 0.00 96 1005.4
20260507035616 57 0 0.9 2.6 0.00 0.07 0.07 96 1005.4
20260507035115 57 38 0.9 3.5 0.00 0.07 0.07 96 1005.5
20260507034615 57 355 0.9 3.5 0.00 0.07 0.07 96 1005.6
20260507034117 57 294 0.9 4.3 0.00 0.07 0.07 96 1005.8
20260507034112 57 350 0.9 4.3 0.00 0.07 0.07 96 1005.7
20260507033730 57 323 0.9 4.3 0.00 0.07 0.07 96 1005.5
20260507033111 57 323 0.9 4.3 0.00 0.07 0.07 96 1005.7
20260507032109 57 28 0.9 3.5 0.00 0.07 0.07 96 1005.4
20260507031609 57 28 0.9 4.3 0.00 0.07 0.07 96 1005.5
20260507031109 57 53 0.9 4.3 0.00 0.07 0.07 96 1005.4
20260507030609 57 327 0.9 3.5 0.00 0.07 0.07 96 1005.3
20260507030109 57 85 0.9 1.7 0.00 0.07 0.07 96 1005.3
20260507025611 57 95 0.9 4.3 0.00 0.07 0.07 96 1005.3
20260507025110 57 95 1.7 5.2 0.00 0.07 0.07 96 1005.2
20260507024609 57 277 0.9 5.2 0.00 0.07 0.07 96 1005.4
20260507024109 57 75 0.9 2.6 0.00 0.07 0.07 96 1005.3
20260507023614 57 26 0.9 3.5 0.00 0.07 0.07 96 1005.0
20260507023608 57 22 0.9 2.6 0.00 0.07 0.07 96 1005.1
20260507022607 57 121 0.9 3.5 0.00 0.07 0.07 96 1005.0
20260507022106 57 63 0.9 3.5 0.00 0.07 0.07 96 1005.3
20260507021606 57 42 0.9 3.5 0.00 0.07 0.07 96 1005.3
20260507021105 57 355 0.9 3.5 0.00 0.07 0.07 96 1005.4
20260507020607 57 84 0.9 3.5 0.00 0.07 0.07 96 1005.4
20260507020112 57 113 0.9 4.3 0.00 0.07 0.07 96 1005.5
20260507020107 57 114 0.9 4.3 0.00 0.07 0.07 96 1005.6
20260507015105 57 99 0.9 3.5 0.00 0.07 0.07 96 1005.9
20260507014607 57 72 0.9 3.5 0.00 0.07 0.07 95 1005.9
20260507014107 57 73 0.9 3.5 0.00 0.07 0.07 95 1005.7
20260507013606 57 327 0.9 3.5 0.00 0.07 0.07 95 1005.9
20260507013106 57 0 0.9 2.6 0.00 0.07 0.07 95 1005.9
20260507012603 57 336 0.9 2.6 0.00 0.07 0.07 95 1005.9
20260507012111 57 333 0.9 2.6 0.00 0.07 0.07 95 1006.0
20260507012105 57 333 0.9 1.7 0.00 0.07 0.07 95 1006.0
20260507011111 57 308 0.9 4.3 0.00 0.07 0.07 95 1006.0
20260507011106 57 316 0.9 2.6 0.00 0.07 0.07 95 1006.1
20260507010604 57 315 0.9 4.3 0.00 0.07 0.07 95 1006.1
20260507005608 57 46 0.9 4.3 0.01 0.07 0.07 95 1006.0
20260507005604 57 76 0.9 4.3 0.01 0.07 0.07 95 1006.0
20260507004603 57 123 1.7 4.3 0.01 0.07 0.07 95 1006.1
20260507004109 57 67 1.7 7.0 0.01 0.07 0.07 95 1005.9
20260507004104 57 204 1.7 4.3 0.01 0.07 0.07 95 1005.9
20260507003103 57 42 1.7 7.8 0.01 0.07 0.07 95 1006.0
20260507002601 57 65 1.7 7.8 0.01 0.07 0.07 95 1006.0
20260507002101 57 59 1.7 7.0 0.01 0.07 0.07 95 1006.0
20260507001603 57 61 1.7 7.0 0.01 0.07 0.07 95 1005.9
20260507001100 57 63 1.7 5.2 0.01 0.07 0.07 95 1005.8
20260507000600 57 49 1.7 5.2 0.01 0.07 0.07 95 1005.8
20260507000100 57 355 0.9 6.1 0.01 0.07 0.07 95 1005.8
20260506235600 57 36 1.7 7.0 0.00 0.06 0.06 95 1005.7
20260506235100 57 41 1.7 7.0 0.00 0.06 0.06 95 1005.6
20260506234605 57 32 1.7 7.0 0.01 0.06 0.06 94 1005.9
20260506234600 57 101 1.7 7.0 0.00 0.06 0.06 95 1005.8
20260506234219 57 75 1.7 6.1 0.01 0.06 0.06 94 1005.8
20260506233101 57 9 1.7 7.0 0.01 0.06 0.06 94 1005.9
20260506232606 57 69 1.7 9.6 0.03 0.06 0.06 94 1006.0
20260506232600 57 49 1.7 9.6 0.02 0.06 0.06 94 1005.8
20260506232217 57 49 1.7 7.8 0.03 0.06 0.06 94 1006.1
20260506231558 57 90 1.7 7.8 0.03 0.06 0.06 94 1006.0
20260506230600 58 88 0.9 5.2 0.04 0.06 0.06 94 1006.0
20260506230105 58 107 1.7 7.0 0.04 0.06 0.06 94 1005.9
20260506230100 58 119 1.7 7.0 0.04 0.06 0.06 94 1005.9
20260506225104 58 52 0.9 3.5 0.04 0.06 0.06 94 1005.8
20260506225059 58 86 0.9 4.3 0.04 0.06 0.06 94 1005.8
20260506224059 58 48 1.7 6.1 0.03 0.05 0.06 93 1005.9
20260506223559 58 174 1.7 6.1 0.03 0.05 0.05 93 1005.8
20260506223109 58 150 1.7 8.7 0.02 0.04 0.04 93 1006.2
20260506223058 58 71 1.7 4.3 0.03 0.05 0.05 93 1005.9
20260506222056 58 57 1.7 8.7 0.01 0.03 0.03 93 1006.2
20260506221558 58 186 1.7 7.8 0.01 0.03 0.03 93 1006.4
20260506221058 58 49 1.7 7.0 0.01 0.03 0.03 93 1006.3
20260506220557 58 65 1.7 7.0 0.00 0.02 0.02 93 1006.3
20260506220057 59 91 1.7 5.2 0.00 0.02 0.02 93 1006.3
20260506215603 59 171 1.7 5.2 0.00 0.02 0.02 92 1006.4
20260506215556 59 199 1.7 5.2 0.00 0.02 0.02 93 1006.5
20260506214559 59 9 1.7 6.1 0.00 0.02 0.02 92 1006.4
20260506214104 59 38 1.7 7.8 0.00 0.02 0.02 92 1006.4
20260506214057 59 152 1.7 8.7 0.00 0.02 0.02 92 1006.6
20260506213558 59 116 1.7 8.7 0.00 0.02 0.02 92 1006.5
20260506213214 59 157 1.7 7.8 0.00 0.02 0.02 92 1006.5
20260506212713 59 348 2.6 12.2 0.00 0.02 0.02 92 1006.7